K2BIG Weather Reports


Display with metric or nautical units.
time (UTC)temp
F
wind
direction
speed
MPH
gust
MPH
rain 1hr
in
rain 24hr
in
rain mn
in
humidity
%
barometer
mb
20260505102015 48 0.0 4.0 0.00 0.00 0.00 92 1009.9
20260505101515 47 0.0 3.0 0.00 0.00 0.00 92 1009.8
20260505101015 46 0.0 0.0 0.00 0.00 0.00 92 1009.6
20260505100515 46 0.0 1.0 0.00 0.00 0.00 92 1009.6
20260505100015 46 0.0 0.0 0.00 0.00 0.00 91 1009.5
20260505095515 46 0.0 0.0 0.00 0.00 0.00 91 1009.5
20260505095015 46 0.0 0.0 0.00 0.00 0.00 91 1009.5
20260505094515 46 0.0 0.0 0.00 0.00 0.00 91 1009.3
20260505094015 46 0.0 0.0 0.00 0.00 0.00 91 1009.2
20260505093515 46 0.0 0.0 0.00 0.00 0.00 90 1009.2
20260505093015 46 0.0 0.0 0.00 0.00 0.00 90 1009.3
20260505092515 46 0.0 0.0 0.00 0.00 0.00 90 1009.2
20260505092015 46 0.0 0.0 0.00 0.00 0.00 90 1008.9
20260505091515 46 0.0 0.0 0.00 0.00 0.00 89 1009.0
20260505091015 46 0.0 0.0 0.00 0.00 0.00 89 1008.9
20260505090515 46 0.0 0.0 0.00 0.00 0.00 89 1008.9
20260505090015 46 0.0 0.0 0.00 0.00 0.00 89 1008.9
20260505085515 46 0.0 0.0 0.00 0.00 0.00 89 1008.9
20260505085015 46 0.0 0.0 0.00 0.00 0.00 89 1008.9
20260505084515 47 0.0 0.0 0.00 0.00 0.00 89 1008.9
20260505084015 47 0.0 0.0 0.00 0.00 0.00 89 1009.0
20260505083515 47 0.0 0.0 0.00 0.00 0.00 89 1009.1
20260505083015 47 0.0 0.0 0.00 0.00 0.00 89 1009.1
20260505082515 47 0.0 0.0 0.00 0.00 0.00 88 1009.0
20260505082015 47 0.0 0.0 0.00 0.00 0.00 88 1009.1
20260505081515 47 0.0 0.0 0.00 0.00 0.00 88 1009.0
20260505081015 47 0.0 0.0 0.00 0.00 0.00 87 1009.1
20260505080515 47 0.0 0.0 0.00 0.00 0.00 87 1009.1
20260505080015 47 0.0 0.0 0.00 0.00 0.00 87 1008.9
20260505075515 47 0.0 0.0 0.00 0.00 0.00 87 1009.0
20260505075015 48 0.0 0.0 0.00 0.00 0.00 87 1009.1
20260505074515 48 0.0 0.0 0.00 0.00 0.00 87 1009.1
20260505074015 48 0.0 0.0 0.00 0.00 0.00 87 1009.1
20260505073515 48 0.0 0.0 0.00 0.00 0.00 87 1009.1
20260505073015 48 0.0 0.0 0.00 0.00 0.00 86 1009.2
20260505072515 48 0.0 0.0 0.00 0.00 0.00 86 1009.1
20260505072015 49 0.0 0.0 0.00 0.00 0.00 85 1009.2
20260505071515 49 0.0 0.0 0.00 0.00 0.00 85 1009.2
20260505071015 49 0.0 0.0 0.00 0.00 0.00 85 1009.1
20260505070515 49 0.0 0.0 0.00 0.00 0.00 85 1009.1
20260505070015 49 0.0 0.0 0.00 0.00 0.00 85 1009.1
20260505065515 49 0.0 0.0 0.00 0.00 0.00 85 1009.1
20260505065015 49 0.0 0.0 0.00 0.00 0.00 85 1009.1
20260505064515 49 0.0 0.0 0.00 0.00 0.00 84 1009.0
20260505064015 50 0.0 0.0 0.00 0.00 0.00 84 1009.0
20260505063515 50 0.0 0.0 0.00 0.00 0.00 85 1009.0
20260505063015 50 0.0 0.0 0.00 0.00 0.00 85 1009.0
20260505062515 50 0.0 0.0 0.00 0.00 0.00 85 1009.0
20260505062015 50 0.0 0.0 0.00 0.00 0.00 84 1009.1
20260505061515 50 0.0 0.0 0.00 0.00 0.00 83 1009.1
20260505061015 50 0.0 0.0 0.00 0.00 0.00 84 1009.1
20260505060516 50 0.0 0.0 0.00 0.00 0.00 83 1009.1
20260505060015 50 0.0 0.0 0.00 0.00 0.00 83 1009.2
20260505055515 51 0.0 0.0 0.00 0.00 0.00 83 1009.2
20260505055015 51 0.0 0.0 0.00 0.00 0.00 82 1009.3
20260505054515 51 0.0 0.0 0.00 0.00 0.00 83 1009.3
20260505054015 51 0.0 0.0 0.00 0.00 0.00 83 1009.3
20260505053515 51 0.0 0.0 0.00 0.00 0.00 83 1009.3
20260505053015 52 0.0 0.0 0.00 0.00 0.00 82 1009.4
20260505052515 52 0.0 0.0 0.00 0.00 0.00 81 1009.4
20260505052015 52 0.0 0.0 0.00 0.00 0.00 80 1009.4
20260505051515 52 0.0 0.0 0.00 0.00 0.00 80 1009.5
20260505051017 52 0.0 0.0 0.00 0.00 0.00 82 1009.4
20260505050517 52 0.0 1.0 0.00 0.00 0.00 79 1009.4
20260505041517 54 0.0 0.0 0.00 0.00 0.00 78 1009.4
20260505041017 54 0.0 0.0 0.00 0.00 0.00 75 1009.4
20260505040517 54 0.0 1.0 0.00 0.00 0.00 74 1009.5
20260505040017 54 0.0 0.0 0.00 0.00 0.00 74 1009.5
20260505035516 55 0.0 0.0 0.00 0.00 0.00 71 1009.6
20260505035016 55 0.0 0.0 0.00 0.00 0.00 69 1009.6
20260505034516 55 0.0 0.0 0.00 0.00 0.00 69 1009.6
20260505034016 55 0.0 2.0 0.00 0.00 0.00 68 1009.5
20260505033516 56 0.0 0.0 0.00 0.00 0.00 68 1009.6
20260505033017 56 0.0 0.0 0.00 0.00 0.00 66 1009.6
20260505032516 56 0.0 0.0 0.00 0.00 0.00 65 1009.6
20260505032016 57 0.0 0.0 0.00 0.00 0.00 65 1009.6
20260505031516 57 0.0 0.0 0.00 0.00 0.00 66 1009.6
20260505031016 58 0.0 1.0 0.00 0.00 0.00 65 1009.6
20260505030515 58 0.0 1.0 0.00 0.00 0.00 64 1009.6
20260505030016 58 0.0 0.0 0.00 0.00 0.00 63 1009.6
20260505025516 59 0.0 1.0 0.00 0.00 0.00 60 1009.5
20260505025015 59 0.0 2.0 0.00 0.00 0.00 60 1009.5
20260505024515 59 0.0 1.0 0.00 0.00 0.00 59 1009.4
20260505024016 59 0.0 1.0 0.00 0.00 0.00 59 1009.5
20260505023515 59 0.0 3.0 0.00 0.00 0.00 58 1009.5
20260505023015 60 0.0 0.0 0.00 0.00 0.00 59 1009.5
20260505022515 60 0.0 0.0 0.00 0.00 0.00 58 1009.6
20260505022015 60 0.0 1.0 0.00 0.00 0.00 57 1009.6
20260505021515 60 180 1.0 5.0 0.00 0.00 0.00 57 1009.6
20260505021015 60 158 1.0 4.0 0.00 0.00 0.00 57 1009.6
20260505020515 60 158 1.0 4.0 0.00 0.00 0.00 57 1009.7
20260505020015 61 0.0 2.0 0.00 0.00 0.00 56 1009.7
20260505015515 61 0.0 4.0 0.00 0.00 0.00 55 1009.6
20260505015015 61 0.0 4.0 0.00 0.00 0.00 55 1009.6
20260505014515 61 180 1.0 4.0 0.00 0.00 0.00 55 1009.5
20260505014015 61 0.0 2.0 0.00 0.00 0.00 55 1009.6
20260505013515 61 158 1.0 6.0 0.00 0.00 0.00 55 1009.5
20260505013015 61 0.0 4.0 0.00 0.00 0.00 54 1009.5
20260505012515 61 158 1.0 4.0 0.00 0.00 0.00 54 1009.4
20260505012015 61 0.0 2.0 0.00 0.00 0.00 53 1009.3
20260505011515 62 0.0 2.0 0.00 0.00 0.00 54 1009.2
20260505011015 62 0.0 3.0 0.00 0.00 0.00 52 1009.1
20260505010515 62 0.0 0.0 0.00 0.00 0.00 52 1009.1
20260505010015 63 0.0 1.0 0.00 0.00 0.00 51 1009.1
20260505005515 63 0.0 0.0 0.00 0.00 0.00 50 1009.0
20260505005015 64 0.0 0.0 0.00 0.00 0.00 49 1008.9
20260505004515 64 0.0 1.0 0.00 0.00 0.00 49 1008.9
20260505004015 65 0.0 2.0 0.00 0.00 0.00 47 1008.8
20260505003515 65 0.0 3.0 0.00 0.00 0.00 47 1008.6
20260505003015 66 225 1.0 8.0 0.00 0.00 0.00 47 1008.6
20260505002515 66 180 1.0 5.0 0.00 0.00 0.00 46 1008.5
20260505002015 66 180 2.0 8.0 0.00 0.00 0.00 47 1008.5
20260505001515 66 225 2.0 7.0 0.00 0.00 0.00 46 1008.3
20260505001015 67 180 2.0 6.0 0.00 0.00 0.00 45 1008.2
20260505000515 67 180 2.0 7.0 0.00 0.00 0.00 45 1008.1
20260505000015 67 180 3.0 8.0 0.00 0.00 0.00 44 1008.1
20260504235515 68 203 2.0 7.0 0.00 0.00 0.00 44 1007.9
20260504235015 68 180 3.0 7.0 0.00 0.00 0.00 44 1007.8
20260504234515 68 180 2.0 9.0 0.00 0.00 0.00 43 1007.8
20260504234015 68 203 3.0 9.0 0.00 0.00 0.00 43 1007.7
20260504233515 69 180 3.0 7.0 0.00 0.00 0.00 43 1007.6
20260504233015 69 180 3.0 7.0 0.00 0.00 0.00 42 1007.7
20260504232515 69 203 4.0 9.0 0.00 0.00 0.00 42 1007.6
20260504232015 69 180 4.0 10.0 0.00 0.00 0.00 42 1007.6
20260504231515 69 180 3.0 12.0 0.00 0.00 0.00 42 1007.5
20260504231015 70 180 5.0 11.0 0.00 0.00 0.00 42 1007.4
20260504230515 70 225 3.0 9.0 0.00 0.00 0.00 42 1007.4
20260504230015 70 225 4.0 11.0 0.00 0.00 0.00 42 1007.3
20260504225515 70 203 3.0 9.0 0.00 0.00 0.00 41 1007.2
20260504225015 70 180 4.0 10.0 0.00 0.00 0.00 41 1007.2
20260504224515 70 180 5.0 14.0 0.00 0.00 0.00 41 1007.2
20260504224015 70 203 3.0 10.0 0.00 0.00 0.00 41 1007.1
20260504223515 70 180 4.0 10.0 0.00 0.00 0.00 41 1007.2
20260504223015 71 203 4.0 11.0 0.00 0.00 0.00 40 1007.2
20260504222515 71 203 5.0 10.0 0.00 0.00 0.00 40 1007.2
20260504222015 71 203 5.0 12.0 0.00 0.00 0.00 41 1007.2
20260504221515 71 180 5.0 13.0 0.00 0.00 0.00 40 1007.2
20260504221015 71 180 3.0 10.0 0.00 0.00 0.00 41 1007.2
20260504220515 71 225 4.0 14.0 0.00 0.00 0.00 40 1007.4
20260504220015 71 180 4.0 15.0 0.00 0.00 0.00 40 1007.5
20260504215515 72 180 3.0 12.0 0.00 0.00 0.00 39 1007.4
20260504215015 72 180 6.0 13.0 0.00 0.00 0.00 38 1007.4
20260504214515 73 203 5.0 16.0 0.00 0.00 0.00 37 1007.6
20260504214015 73 180 5.0 11.0 0.00 0.00 0.00 37 1007.5
20260504213515 73 203 8.0 21.0 0.00 0.00 0.00 37 1007.6
20260504213015 73 203 7.0 15.0 0.00 0.00 0.00 36 1007.7
20260504212515 74 225 5.0 12.0 0.00 0.00 0.00 37 1007.7
20260504212015 74 180 5.0 13.0 0.00 0.00 0.00 36 1007.8
20260504211515 74 203 6.0 12.0 0.00 0.00 0.00 37 1007.7
20260504211015 74 225 7.0 17.0 0.00 0.00 0.00 36 1007.8
20260504210515 74 203 5.0 12.0 0.00 0.00 0.00 36 1007.8
20260504210015 74 225 6.0 14.0 0.00 0.00 0.00 36 1007.9
20260504205515 74 203 5.0 12.0 0.00 0.00 0.00 36 1007.9
20260504205015 74 225 4.0 11.0 0.00 0.00 0.00 36 1007.9
20260504204515 74 248 6.0 13.0 0.00 0.00 0.00 37 1007.9
20260504204015 74 225 6.0 15.0 0.00 0.00 0.00 36 1007.9
20260504203517 74 203 5.0 18.0 0.00 0.00 0.00 38 1007.9
20260504203017 73 225 8.0 22.0 0.00 0.00 0.00 37 1007.9
20260504202517 73 203 7.0 16.0 0.00 0.00 0.00 38 1007.8
20260504202017 73 158 5.0 14.0 0.00 0.00 0.00 37 1007.8
20260504201517 72 203 7.0 16.0 0.00 0.00 0.00 38 1008.0
20260504201017 72 203 5.0 14.0 0.00 0.00 0.00 37 1008.0
20260504200517 73 203 6.0 15.0 0.00 0.00 0.00 36 1008.1
20260504200017 73 158 5.0 12.0 0.00 0.00 0.00 36 1008.1
20260504195517 73 225 6.0 14.0 0.00 0.00 0.00 38 1008.1
20260504195017 73 225 5.0 17.0 0.00 0.00 0.00 37 1008.3
20260504194517 73 203 7.0 15.0 0.00 0.00 0.00 37 1008.3
20260504194017 72 225 6.0 11.0 0.00 0.00 0.00 40 1008.4
20260504193517 72 225 5.0 16.0 0.00 0.00 0.00 38 1008.4
20260504193017 72 225 7.0 13.0 0.00 0.00 0.00 36 1008.4
20260504192517 71 225 6.0 18.0 0.00 0.00 0.00 37 1008.4
20260504192017 72 203 9.0 21.0 0.00 0.00 0.00 37 1008.6
20260504191517 72 203 5.0 12.0 0.00 0.00 0.00 37 1008.6
20260504191016 71 203 6.0 12.0 0.00 0.00 0.00 41 1008.6
20260504190517 71 225 5.0 11.0 0.00 0.00 0.00 37 1008.7
20260504190017 72 225 7.0 14.0 0.00 0.00 0.00 37 1008.7
20260504185517 71 203 5.0 16.0 0.00 0.00 0.00 39 1008.7
20260504185017 71 225 4.0 9.0 0.00 0.00 0.00 37 1008.8
20260504184517 72 180 7.0 21.0 0.00 0.00 0.00 37 1008.8
20260504184016 73 158 6.0 14.0 0.00 0.00 0.00 36 1008.9
20260504183517 74 135 5.0 11.0 0.00 0.00 0.00 35 1009.0
20260504183017 74 203 6.0 16.0 0.00 0.00 0.00 38 1009.0
20260504182517 73 248 6.0 12.0 0.00 0.00 0.00 37 1009.0
20260504182017 73 248 6.0 15.0 0.00 0.00 0.00 37 1009.1
20260504181516 72 225 6.0 13.0 0.00 0.00 0.00 38 1009.2
20260504181016 72 203 8.0 17.0 0.00 0.00 0.00 37 1009.3
20260504180517 72 203 7.0 19.0 0.00 0.00 0.00 38 1009.3
20260504180016 72 225 6.0 15.0 0.00 0.00 0.00 37 1009.5
20260504175516 71 225 7.0 19.0 0.00 0.00 0.00 42 1009.5
20260504175016 71 203 6.0 12.0 0.00 0.00 0.00 38 1009.5
20260504174516 71 225 8.0 16.0 0.00 0.00 0.00 38 1009.5
20260504174016 70 225 6.0 13.0 0.00 0.00 0.00 41 1009.5
20260504173516 70 203 7.0 16.0 0.00 0.00 0.00 39 1009.6
20260504173016 70 225 7.0 16.0 0.00 0.00 0.00 39 1009.7
20260504172516 69 225 6.0 14.0 0.00 0.00 0.00 40 1009.8
20260504172017 70 203 9.0 19.0 0.00 0.00 0.00 37 1010.0
20260504171516 70 158 5.0 16.0 0.00 0.00 0.00 40 1009.9
20260504171016 70 203 6.0 13.0 0.00 0.00 0.00 40 1010.1
20260504170516 69 225 6.0 12.0 0.00 0.00 0.00 39 1010.3
20260504151016 67 203 6.0 13.0 0.00 0.00 0.00 40 1011.2
20260504150516 67 225 6.0 16.0 0.00 0.00 0.00 43 1011.3
20260504141016 63 180 6.0 15.0 0.00 0.00 0.00 45 1012.0
20260504140516 63 225 6.0 19.0 0.00 0.00 0.00 45 1012.1
20260504130516 59 225 6.0 18.0 0.00 0.00 0.00 49 1012.6
20260504110516 40 0.0 2.0 0.00 0.00 0.00 86 1012.6